Wind_Speed
59 55 49 45 39 35 32 36 39 38 35 38 41 50 59 65 75 85 94 100 108 126 135 142 144 139 138 132 130 124 118 118 114 109 107 104 100 97 95 91 80 79 73 56
58 53 49 44 38 32 34 32 37 36 31 35 41 50 54 58 67 77 84 92 97 110 129 139 143 142 138 136 131 126 124 124 120 115 111 109 106 101 99 91 92 83 77 52
56 52 50 44 38 33 31 29 34 31 32 33 39 50 54 57 64 70 77 84 92 100 112 128 142 142 138 136 133 130 130 129 127 123 119 118 113 108 104 98 101 81 79 56
54 51 49 43 39 33 29 24 28 29 32 34 37 43 54 57 60 63 69 75 85 94 101 113 122 138 140 139 137 135 135 134 132 132 127 120 116 116 113 112 101 100 75 72
53 51 47 44 39 35 29 24 21 27 30 33 36 39 50 55 58 59 64 71 83 88 91 98 110 124 135 146 145 146 144 137 140 139 131 127 123 122 117 115 107 104 86 82
52 50 47 43 38 33 32 20 22 24 26 30 34 39 46 53 53 54 60 72 75 78 87 100 107 114 127 132 147 148 147 144 145 139 137 134 129 124 122 114 111 106 100 75
51 50 46 42 37 32 32 26 22 23 25 27 32 32 40 43 45 48 53 60 64 68 78 87 96 100 107 118 131 138 143 150 148 140 143 142 126 124 125 120 112 107 101 84
50 49 44 41 37 31 31 29 21 23 29 26 30 31 33 36 37 39 45 50 52 70 70 79 84 89 96 100 109 121 131 142 150 152 148 141 135 125 122 120 116 112 104 87
50 47 44 41 36 31 31 27 22 23 30 32 25 26 33 37 35 37 41 52 53 59 64 67 65 71 80 88 94 104 114 124 142 143 153 156 136 131 127 130 126 117 113 101
49 46 42 39 35 32 31 26 21 24 31 34 25 28 30 35 36 33 39 47 48 51 55 60 61 62 68 70 80 92 101 109 116 124 140 141 133 137 138 148 124 123 122 114
49 45 41 38 35 31 31 27 21 23 31 36 27 28 31 34 36 37 41 42 43 46 46 51 55 59 67 72 78 83 94 103 104 105 115 111 118 145 149 142 133 129 127 119
47 43 41 37 34 31 28 29 22 22 30 38 28 28 31 31 34 35 39 41 44 43 41 42 49 52 59 67 74 87 89 92 95 102 101 91 99 127 143 145 141 138 133 127
44 40 39 36 34 31 27 26 24 22 28 32 30 29 27 31 34 34 36 40 43 43 42 41 42 45 54 57 68 82 80 88 90 91 74 75 87 105 128 137 139 142 140 138
42 39 37 36 34 32 27 23 22 21 24 28 28 29 28 29 33 35 35 36 41 43 42 40 39 40 48 56 62 63 74 82 78 74 67 77 82 97 109 119 130 145 147 143
39 37 36 35 33 32 27 24 21 20 21 24 25 28 28 27 30 33 32 34 37 39 38 38 38 40 43 49 55 61 68 69 69 59 72 73 78 92 105 107 111 120 131 138
36 35 34 34 33 31 27 24 22 19 19 21 23 28 28 29 29 29 31 32 35 37 34 34 37 38 35 41 54 62 63 66 64 63 71 69 74 80 92 100 100 99 101 104
35 33 32 33 32 30 27 24 22 20 19 20 22 25 27 29 29 28 28 29 31 33 31 32 37 34 30 41 56 66 67 66 61 64 63 62 68 73 82 81 87 89 87 88
34 32 31 31 31 29 26 23 22 21 19 20 21 23 23 23 25 28 27 29 28 28 29 32 33 28 30 45 64 58 53 49 50 57 58 58 61 66 73 71 77 78 77 82
33 31 30 30 30 28 25 23 22 21 20 19 20 21 22 22 24 25 24 24 24 26 30 30 29 38 42 51 49 49 47 46 50 47 47 50 54 59 63 64 65 68 69 75
31 30 29 29 27 26 23 22 21 20 18 18 18 19 19 19 19 21 23 24 25 27 30 32 38 45 39 41 44 46 46 47 45 44 48 49 52 54 58 60 53 59 64 68
30 29 28 28 25 24 22 21 21 19 18 17 16 16 16 16 17 18 20 21 25 28 29 32 36 33 32 36 40 41 43 42 40 36 38 42 46 52 56 53 54 58 63 69
29 28 27 26 24 23 20 19 19 18 16 16 15 15 14 14 15 16 17 19 21 22 24 25 26 27 26 28 33 35 37 36 35 30 32 37 43 48 49 47 48 50 53 58
28 27 27 26 23 22 19 17 17 16 16 14 14 13 14 15 14 13 14 16 16 19 20 21 23 23 23 24 27 29 30 30 29 26 29 36 43 45 46 46 51 55 57 60
27 26 25 25 23 21 18 16 16 15 15 14 11 11 12 14 15 15 13 13 14 15 15 16 19 20 20 21 22 24 25 25 24 23 27 36 39 45 50 54 55 61 67 66
26 25 25 24 22 21 19 16 15 14 13 13 13 11 11 12 14 16 17 15 14 14 13 12 15 16 17 17 19 20 22 20 21 23 28 34 39 47 51 50 53 58 66 70
25 24 24 23 21 20 18 16 15 14 14 13 12 12 11 12 12 14 17 18 18 16 14 13 14 15 16 16 16 19 20 18 22 25 29 35 43 48 46 50 59 70 77 76
24 24 23 23 21 20 19 17 16 14 14 14 13 13 13 12 12 13 15 15 17 18 17 16 15 16 15 15 15 17 19 18 20 26 30 34 41 49 53 57 66 75 79 85
Wind_Direction
320 319 319 317 313 305 293 287 277 272 260 250 236 235 233 229 229 227 224 225 224 221 223 225 227 230 232 232 233 235 238 239 238 237 236 237 240 241 245 246 248 247 239 230
320 319 318 316 313 308 295 289 282 278 268 250 240 235 232 230 229 228 227 226 225 223 223 224 227 228 230 232 233 234 235 238 239 238 237 236 239 241 244 244 242 241 240 225
320 318 318 316 312 310 294 292 286 281 272 254 241 236 230 228 227 226 226 225 225 225 224 224 225 227 229 231 231 232 233 235 237 237 237 237 237 238 242 243 243 241 239 225
319 318 317 315 313 311 300 293 288 282 269 257 244 241 236 230 230 227 227 226 226 226 225 226 225 227 227 229 230 231 235 234 233 234 235 237 238 239 239 239 240 239 235 226
319 318 317 314 314 312 305 294 284 272 269 263 249 234 235 234 231 226 226 226 226 225 225 227 227 226 228 227 228 229 229 232 234 233 235 235 235 237 239 241 242 238 233 228
319 318 316 313 313 313 306 294 287 277 268 262 255 241 238 236 233 230 228 227 227 226 223 225 226 226 227 227 229 231 232 232 235 235 236 234 234 235 238 240 241 239 235 229
319 318 315 313 313 313 305 296 290 289 274 258 255 247 240 238 236 234 232 233 232 232 231 231 230 230 229 229 231 232 233 232 234 237 239 238 238 236 237 240 241 240 236 229
319 317 313 311 312 312 303 295 296 289 280 267 249 249 246 240 232 231 231 233 229 234 230 232 232 232 233 233 231 234 235 234 234 234 236 240 240 241 239 240 238 240 237 231
319 316 312 311 313 311 302 295 295 285 281 266 262 256 245 241 234 232 231 237 229 232 235 232 234 235 236 237 236 235 235 236 236 235 235 237 235 241 242 242 238 240 239 232
319 315 311 310 312 311 302 296 291 285 279 274 273 255 252 245 240 240 241 243 242 237 234 236 233 231 233 232 234 237 236 236 236 236 236 237 234 235 238 242 241 239 241 236
318 315 311 310 312 310 302 296 290 283 280 278 265 258 252 244 241 237 245 247 246 242 237 235 237 233 229 225 224 229 234 235 235 237 238 237 233 233 236 241 241 242 240 238
317 314 310 310 311 309 302 297 292 284 279 277 276 262 257 251 243 236 239 245 249 249 244 237 233 234 235 230 228 231 230 233 233 233 235 232 229 231 235 237 239 242 242 239
316 313 310 309 311 309 302 298 296 290 282 278 272 267 262 251 242 236 236 241 246 247 247 241 236 231 236 236 236 236 235 236 237 235 233 229 227 231 233 234 233 240 242 243
316 312 309 310 312 309 305 301 296 294 283 275 273 267 260 248 245 239 234 243 244 248 248 242 237 232 234 236 239 244 241 241 240 238 230 224 221 230 231 232 231 233 237 240
315 311 310 312 312 309 308 304 299 298 287 278 273 269 262 253 247 244 240 241 250 249 248 244 238 235 236 238 240 238 238 238 238 231 229 227 222 224 231 232 231 232 235 238
314 311 311 312 311 309 307 304 303 302 288 275 266 264 262 257 253 248 244 243 246 250 249 248 242 235 233 236 238 240 239 237 234 226 229 229 225 227 230 232 233 232 236 238
313 312 311 312 310 309 308 308 310 306 291 277 268 264 259 258 259 256 251 249 249 251 250 244 241 236 234 240 238 238 237 238 240 240 242 233 227 228 231 231 233 235 233 232
312 312 311 312 309 308 306 309 309 308 294 282 276 271 267 262 260 259 256 254 252 250 249 245 240 237 239 245 241 244 248 247 245 243 239 235 230 228 233 229 228 232 229 229
311 311 311 312 310 307 305 310 310 311 301 290 284 281 273 265 261 256 254 255 250 242 240 240 230 235 231 237 246 249 252 250 245 243 242 240 237 232 233 232 227 228 227 225
310 310 310 311 310 306 307 310 310 311 304 295 288 278 269 264 260 257 250 248 243 241 238 236 234 237 233 236 242 243 244 247 245 238 237 233 231 230 228 232 226 224 224 223
308 309 309 311 309 305 305 309 309 311 309 300 294 286 273 268 263 255 252 250 244 243 242 241 247 250 245 241 244 247 250 253 253 248 239 231 228 224 225 225 220 218 217 215
306 307 307 308 306 303 301 305 307 308 308 304 301 295 284 271 267 260 257 253 254 253 249 251 252 249 245 242 243 244 244 247 249 241 230 220 221 220 219 218 216 213 211 215
304 305 306 306 304 301 298 301 304 305 307 305 302 301 293 282 269 259 255 253 253 252 254 254 256 256 253 247 246 247 246 244 243 232 221 216 213 214 211 208 208 205 207 210
300 301 302 304 302 299 294 297 299 305 303 303 303 299 295 286 281 276 270 260 257 253 255 255 255 255 253 250 249 248 246 243 237 223 213 214 210 210 207 207 205 204 204 198
295 296 297 300 297 296 290 292 295 297 299 298 303 298 290 285 281 276 273 268 263 258 253 258 257 256 254 251 250 247 242 235 229 213 207 210 206 209 210 208 205 207 205 199
291 291 293 295 292 291 285 286 290 294 298 300 297 296 295 285 284 283 277 272 268 270 270 264 261 255 255 248 243 242 238 227 222 212 207 207 206 213 207 202 199 203 200 197
286 286 287 290 286 289 283 280 282 283 290 293 295 292 291 288 284 277 277 280 275 269 265 262 261 260 257 253 244 234 238 226 220 210 210 204 214 209 205 202 203 206 206 203
Height
10162 10153 10146 10140 10134 10127 10123 10116 10110 10113 10120 10123 10129 10125 10130 10142 10151 10160 10177 10194 10214 10237 10248 10263 10274 10298 10317 10330 10346 10364 10380 10382 10395 10417 10432 10437 10442 10451 10456 10467 10498 10502 10512 10545
10149 10141 10134 10129 10124 10119 10111 10107 10101 10102 10108 10110 10112 10110 10115 10125 10132 10142 10157 10174 10189 10205 10218 10233 10248 10268 10288 10301 10323 10343 10350 10356 10371 10391 10400 10410 10423 10440 10439 10457 10456 10481 10497 10542
10138 10130 10123 10118 10113 10109 10103 10098 10092 10093 10091 10094 10096 10095 10099 10104 10110 10123 10137 10153 10167 10178 10192 10207 10224 10248 10265 10280 10296 10306 10313 10328 10341 10360 10373 10377 10393 10412 10418 10434 10430 10478 10484 10525
10127 10120 10112 10107 10102 10098 10093 10090 10085 10081 10076 10079 10081 10086 10087 10091 10099 10112 10124 10138 10145 10153 10165 10177 10212 10225 10244 10251 10263 10273 10279 10294 10306 10316 10343 10359 10370 10381 10392 10396 10421 10429 10486 10494
10116 10108 10101 10096 10091 10087 10083 10080 10077 10071 10066 10067 10069 10073 10073 10079 10084 10097 10107 10116 10116 10131 10156 10169 10179 10186 10196 10209 10217 10223 10236 10260 10264 10284 10310 10328 10340 10353 10370 10380 10401 10413 10456 10471
10105 10098 10091 10085 10081 10078 10071 10070 10067 10062 10060 10058 10059 10061 10062 10064 10073 10087 10093 10089 10101 10124 10130 10126 10138 10149 10167 10191 10197 10206 10222 10246 10245 10272 10279 10291 10313 10339 10344 10367 10378 10399 10424 10478
10095 10087 10080 10075 10071 10069 10061 10059 10058 10055 10051 10049 10049 10053 10054 10057 10066 10074 10079 10083 10097 10108 10110 10116 10125 10139 10149 10162 10173 10186 10201 10219 10229 10258 10246 10251 10312 10321 10330 10346 10359 10375 10410 10452
10086 10078 10071 10065 10062 10059 10053 10049 10050 10047 10040 10041 10039 10046 10046 10051 10058 10060 10066 10070 10084 10071 10091 10094 10107 10122 10131 10150 10158 10166 10177 10188 10203 10217 10226 10250 10274 10306 10318 10321 10341 10351 10384 10432
10076 10069 10061 10056 10052 10049 10043 10041 10041 10038 10030 10026 10035 10038 10038 10038 10047 10052 10054 10052 10064 10065 10073 10084 10101 10111 10121 10127 10139 10145 10148 10156 10158 10186 10196 10202 10273 10277 10290 10284 10299 10335 10355 10394
10066 10058 10052 10047 10043 10040 10034 10033 10033 10028 10021 10017 10027 10026 10030 10030 10034 10041 10042 10041 10047 10055 10064 10070 10078 10088 10091 10109 10113 10112 10117 10124 10131 10152 10154 10177 10257 10257 10251 10222 10291 10314 10318 10351
10056 10049 10042 10037 10034 10031 10025 10023 10024 10020 10011 10006 10014 10016 10017 10022 10025 10029 10027 10030 10036 10040 10048 10055 10060 10066 10067 10074 10076 10079 10080 10085 10106 10126 10126 10159 10230 10223 10200 10225 10263 10272 10278 10308
10046 10039 10032 10028 10024 10022 10018 10012 10014 10011 10003 9997 10004 10005 10005 10010 10014 10018 10018 10020 10023 10027 10034 10041 10043 10050 10052 10054 10060 10046 10058 10068 10074 10080 10101 10149 10182 10175 10185 10203 10229 10232 10242 10266
10037 10030 10023 10018 10014 10011 10010 10006 10004 10002 9996 9992 9993 9994 9998 9999 10002 10005 10008 10009 10011 10015 10019 10025 10030 10036 10035 10044 10043 10033 10051 10048 10054 10063 10114 10138 10147 10133 10143 10165 10199 10198 10210 10221
10027 10020 10014 10009 10005 10001 9999 9998 9996 9993 9989 9984 9985 9985 9986 9988 9990 9994 9997 9998 9999 10001 10006 10011 10016 10022 10023 10028 10029 10035 10034 10031 10050 10067 10091 10094 10116 10108 10106 10120 10151 10167 10176 10194
10018 10011 10005 10000 9996 9992 9990 9987 9986 9984 9980 9977 9976 9975 9976 9978 9980 9982 9986 9988 9987 9990 9994 9999 10003 10008 10012 10018 10024 10020 10014 10023 10035 10061 10049 10068 10090 10085 10077 10096 10122 10142 10152 10172
10009 10003 9997 9993 9988 9984 9981 9979 9977 9976 9973 9971 9969 9966 9966 9967 9969 9971 9974 9977 9979 9980 9984 9988 9990 9994 10003 10007 10005 10001 10003 10003 10017 10027 10031 10051 10063 10071 10073 10079 10097 10119 10126 10144
10001 9995 9990 9985 9980 9977 9973 9971 9968 9966 9964 9963 9961 9960 9959 9959 9959 9961 9964 9966 9968 9971 9974 9977 9978 9985 9994 9991 9986 9973 9978 9988 10008 10017 10030 10044 10047 10056 10057 10077 10088 10095 10109 10129
9992 9988 9983 9978 9973 9969 9966 9964 9960 9958 9956 9954 9953 9951 9950 9951 9951 9952 9954 9955 9959 9962 9964 9964 9969 9976 9980 9976 9953 9967 9983 9998 10009 10010 10017 10024 10032 10040 10042 10058 10070 10077 10096 10112
9984 9980 9976 9972 9967 9964 9960 9957 9954 9951 9949 9947 9945 9943 9942 9943 9943 9944 9945 9947 9950 9952 9951 9955 9960 9956 9958 9953 9962 9971 9977 9984 9989 9999 10007 10013 10018 10023 10029 10043 10056 10068 10081 10093
9976 9973 9969 9965 9961 9957 9954 9950 9947 9945 9943 9940 9938 9937 9936 9935 9935 9936 9937 9938 9940 9941 9943 9946 9945 9943 9955 9958 9958 9960 9965 9968 9975 9986 9992 9997 10004 10012 10019 10028 10045 10054 10066 10080
9969 9965 9962 9959 9955 9952 9948 9945 9942 9940 9937 9934 9932 9931 9929 9929 9929 9929 9930 9931 9932 9933 9936 9938 9938 9944 9949 9951 9952 9955 9957 9962 9968 9977 9981 9990 9994 10001 10008 10019 10031 10040 10053 10066
9961 9958 9955 9953 9949 9946 9944 9940 9937 9935 9933 9930 9927 9925 9924 9924 9923 9924 9925 9925 9926 9927 9929 9930 9932 9935 9940 9942 9942 9945 9949 9954 9959 9965 9970 9976 9983 9989 10001 10011 10022 10034 10048 10061
9954 9951 9948 9946 9943 9940 9938 9935 9933 9931 9928 9926 9924 9921 9920 9918 9919 9919 9920 9920 9921 9922 9923 9923 9925 9928 9931 9934 9936 9937 9940 9944 9949 9955 9962 9968 9972 9980 9990 10001 10010 10021 10036 10049
9946 9944 9942 9939 9937 9935 9933 9930 9928 9927 9924 9922 9920 9918 9917 9916 9914 9914 9915 9915 9915 9917 9918 9919 9920 9922 9924 9927 9929 9931 9934 9938 9944 9950 9955 9959 9966 9973 9978 9988 10000 10012 10023 10036
9939 9937 9935 9933 9931 9929 9927 9925 9924 9922 9920 9919 9916 9914 9913 9912 9912 9911 9910 9911 9911 9911 9912 9913 9914 9916 9918 9921 9923 9924 9927 9934 9938 9944 9948 9954 9960 9962 9971 9983 9996 10007 10019 10033
9931 9929 9928 9927 9924 9923 9921 9919 9918 9916 9915 9913 9912 9911 9910 9908 9908 9908 9907 9907 9906 9907 9908 9908 9909 9910 9913 9916 9918 9919 9922 9929 9933 9938 9943 9949 9953 9957 9968 9978 9990 10002 10014 10027
9922 9922 9921 9920 9918 9916 9915 9914 9913 9912 9910 9909 9908 9906 9905 9904 9904 9904 9903 9903 9903 9903 9903 9904 9904 9905 9908 9911 9914 9916 9917 9924 9929 9933 9938 9944 9948 9954 9963 9973 9982 9992 10004 10014